Regional Weather Roundup
Issued by NWS

Home | Current Version | Previous Version | Text Only | Print | Product List | Glossary Off
Versions: 1 2 3 4 5 6 7 8 9 10 11 12 13 14 15 16 17 18 19 20 21 22 23 24 25 26 27 28 29 30 31 32 33 34 35 36 37 38 39 40 41 42 43 44 45 46 47 48 49 50

000
ASUS44 KMEG 271810
RWRTN
TENNESSEE HOURLY STATE WEATHER ROUNDUP
NATIONAL WEATHER SERVICE MEMPHIS TN
1200 PM CST THU NOV 27 2014

TNZ002-004-019-021-049-052-054-088>092-271900-
WEST TENNESSEE

CITY           SKY/WX    TMP DP  RH WIND       PRES   REMARKS
MEMPHIS INTL   PTSUNNY   47  29  49 NW7       30.49F
NWS MEMPHIS      N/A     42 N/A N/A MISG        N/A
JACKSON        CLOUDY    38  27  64 N14       30.48S WCI  30
DYERSBURG      CLOUDY    37  19  48 N13G20    30.51S WCI  29
UNION CITY     CLOUDY    34  27  75 N13       30.47S WCI  25
PARIS          PTSUNNY   32  25  74 NW9       30.45S WCI  24
HUNTINGDON     CLOUDY    34  26  72 NW8       30.46F WCI  27
LEXINGTON      CLOUDY    37  27  65 NW8       30.43S WCI  31
SAVANNAH       CLOUDY    41  28  60 N10       30.43S
$$

TNZ008-025-027-028-033-062-065-066-271900-
NORTH MIDDLE TENNESSEE

CITY           SKY/WX    TMP DP  RH WIND       PRES   REMARKS
NASHVILLE      CLOUDY    37  27  67 NW9       30.41S WCI  30
CLARKSVILLE    CLOUDY    35  26  69 N15       30.44S WCI  25
COOKEVILLE     CLOUDY    36  28  75 NW9       30.33R WCI  29
CROSSVILLE     CLOUDY    34  26  72 NW14G20   30.28S WCI  25
$$

TNZ061-075-076-078-094-096-097-271900-
SOUTH MIDDLE TENNESSEE

CITY           SKY/WX    TMP DP  RH WIND       PRES   REMARKS
FAYETTEVILLE   CLOUDY    37  28  70 MISG      30.36F
TULLAHOMA      CLOUDY    36  28  75 NW8       30.36S WCI  29
WINCHESTER     CLOUDY    36  28  75 NW7       30.36F WCI  30
MCMINNVILLE    CLOUDY    37  28  70 CALM      30.34S
COLUMBIA       CLOUDY    39  30  70 NW10      30.38F WCI  32
SHELBYVILLE    CLOUDY    39  28  65 NW13      30.38F WCI  32
$$

TNZ017-018-042-046-047-271900-
NORTHEAST TENNESSEE

CITY           SKY/WX    TMP DP  RH WIND       PRES   REMARKS
TRI CITIES     CLOUDY    37  30  75 W7        30.20R WCI  32
ELIZABETHTON   LGT RAIN  34  30  86 W6        30.18R WCI  29
$$

TNZ012-013-036-069-073-074-271900-
CENTRAL EAST TENNESSEE

CITY           SKY/WX    TMP DP  RH WIND       PRES   REMARKS
KNOXVILLE      CLOUDY    38  31  76 W10       30.27F WCI  31
OAK RIDGE      CLOUDY    40  29  64 W5        30.29F
GATLINBURG     CLOUDY    37  28  70 NW8       30.26S WCI  31
MORRISTOWN     PTCLDY    37  30  75 NW16      30.24F WCI  28
$$

TNZ083-085-099-271900-
SOUTHEAST TENNESSEE

CITY           SKY/WX    TMP DP  RH WIND       PRES   REMARKS
CHATTANOOGA    CLOUDY    41  28  60 NW13G18   30.34S
$$

SKY/WX REPORTED AS FAIR MEANS FEW OR NO CLOUDS BELOW
12 THOUSAND FEET.




USA.gov is the U.S. government's official web portal to all federal, state and local government web resources and services.